{"data":{"norad_id":63651,"intl_designator":"2025-083T","name":"STARLINK-33705","alt_names":[],"object_type":"PAYLOAD","status":"ACTIVE","operator":null,"country":"US","launch_date":"2025-04-25","launch_site_code":"AFETR","launch_vehicle":null,"mission":null,"orbit_class":"UNKNOWN","rcs_meters":null,"size_class":null,"mass_kg":null,"dimensions":null,"purposes":["comms"],"wikipedia_slug":null,"has_3d_model":false,"image_url":null,"decayed_at":null,"tle_current":{"epoch":"2026-05-25T02:21:27.012384Z","epoch_age_seconds":60569,"freshness":"FRESH","line1":"1 63651U 25083T   26145.09822931  .00008357  00000+0  31286-3 0  9996","line2":"2 63651  42.9942 293.5946 0000602 342.3731  17.7100 15.27577754 61780","mean_motion":15.27577754,"eccentricity":6.02e-5,"inclination_deg":42.9942,"raan_deg":293.5946,"arg_perigee_deg":342.3731,"mean_anomaly_deg":17.71,"bstar":0.00031286,"rev_number":6178,"period_min":94.266887314202,"perigee_km":482.64277757204,"apogee_km":483.46886518773,"semimajor_km":6861.1928213799,"source":"CELESTRAK","updated_at":"2026-05-25T13:38:20.055631Z"}}}